Location: *
(40.9167°N, 9.5000°E)
Time: 18:54:18
(UTC+00:00)

Resurs 01 Rocket - Pass Details

Date: 09 April 2020
Orbit: 635 x 644 km, 98.0° (Epoch: 30 May)

Event Time Altitude Azimuth Distance (km) Brightness Sun altitude
Exits shadow 19:17:43 27° 108° (ESE) 1,233 2.5 -15.5°
Maximum altitude 19:19:13 34° 70° (ENE) 1,049 2.4 -15.8°
Drops below altitude 10° 19:23:13 10° 6° (N) 2,033 4.5 -16.4°
Sets 19:25:34 0° 357° (N) 2,948 5.5 -16.8°
